User: anonymous   Login
Location: Chuathbaluk
(61.5726°N, 159.2454°W)
Time: 16:01:41
(UTC+00:00)
Language:

Tiros 1 - Orbit

View from above orbital plane
View from above orbital plane
View from above satellite
View from above satellite

Ground track
Ground track

The orbit data is extracted from the following two-line orbital elements,

1    29U 60002B   20328.59243424 -.00000058 +00000-0 +22297-4 0  9997
2    29 048.3799 277.5768 0024054 194.8225 165.1984 14.74385421242024
Epoch (UTC): 23 November 2020 14:13:06
Eccentricity: 0.0024054
inclination: 48.3799°
perigee height: 630 km
apogee height: 664 km
right ascension of ascending node: 277.5768°
argument of perigee: 194.8225°
revolutions per day: 14.74385421
mean anomaly at epoch: 165.1984°
orbit number at epoch: 24202

The dashed part of the orbit path shows where the satellite is in the earth's shadow,  

DLR